Location: Coupvray
(48.8929°N, 2.7967°E)
Time: 04:41:13
(UTC+00:00)

Meteor 1-19 Rocket - Pass Details

Date: 14 July 2020
Orbit: 811 x 924 km, 81.2° (Epoch: 06 August)

Event Time Altitude Azimuth Distance (km) Brightness Sun altitude
Rises 01:15:50 0° 346° (NNW) 3,456 8.3 -17.2°
Reaches altitude 10° 01:18:19 10° 344° (NNW) 2,498 7.4 -17.1°
Maximum altitude 01:23:55 69° 263° (W) 897 4.2 -16.7°
Enters shadow 01:27:07 25° 185° (S) 1,598 5.1 -16.5°
